Location: Augustenthal
(51.7167°N, 10.2833°E)
Time: 12:58:00
(UTC+00:00)

Cosmos 44 Rocket - Pass Details

Date: 18 May 2021
Orbit: 636 x 754 km, 65.1° (Epoch: 19 June)

Event Time Altitude Azimuth Distance (km) Brightness Sun altitude
Rises 21:27:15 0° 318° (NW) 3,216 8.3 -14.7°
Reaches altitude 10° 21:29:39 10° 319° (NW) 2,287 7.2 -14.9°
Maximum altitude 21:34:56 82° 48° (NE) 761 3.5 -15.2°
Enters shadow 21:38:15 23° 134° (SE) 1,553 4.5 -15.4°
